| time (UTC) | temp C | wind direction | speed KPH | gust KPH | rain 1hr cm | rain 24hr cm | rain mn cm | humidity % | barometer mb |
| 20260831101245 | 23 | 357 | 0.0 | 0.0 | 0.00 | 0.00 | 0.00 | 96 | 1038.6 |
| 20260831100741 | 23 | 347 | 0.0 | 0.0 | 0.00 | 0.00 | 0.00 | 96 | 1038.7 |
| 20260831100237 | 23 | 290 | 0.0 | 0.0 | 0.00 | 0.00 | 0.00 | 96 | 1038.7 |
| 20260831095736 | 23 | 322 | 0.0 | 0.0 | 0.00 | 0.00 | 0.00 | 96 | 1038.4 |
| 20260831095230 | 23 | 357 | 0.0 | 0.0 | 0.00 | 0.00 | 0.00 | 95 | 1038.5 |
| 20260831094725 | 23 | 6 | 0.0 | 0.0 | 0.00 | 0.00 | 0.00 | 95 | 1038.5 |
| 20260831094221 | 23 | 6 | 0.0 | 0.0 | 0.00 | 0.00 | 0.00 | 95 | 1038.6 |
| 20260831093717 | 23 | 6 | 0.0 | 0.0 | 0.00 | 0.00 | 0.00 | 94 | 1038.5 |
| 20260831093212 | 23 | 6 | 0.0 | 0.0 | 0.00 | 0.00 | 0.00 | 94 | 1038.5 |
| 20260831092709 | 23 | 6 | 0.0 | 0.0 | 0.00 | 0.00 | 0.00 | 94 | 1038.3 |
| 20260831092204 | 23 | 5 | 0.0 | 0.0 | 0.00 | 0.00 | 0.00 | 94 | 1038.4 |
| 20260831091703 | 23 | 23 | 0.0 | 0.0 | 0.00 | 0.00 | 0.00 | 94 | 1038.4 |
| 20260831091159 | 23 | 11 | 0.0 | 0.0 | 0.00 | 0.00 | 0.00 | 93 | 1038.5 |
| 20260831090654 | 23 | 9 | 0.0 | 0.0 | 0.00 | 0.00 | 0.00 | 93 | 1038.6 |
| 20260831090150 | 23 | 8 | 0.0 | 0.0 | 0.00 | 0.00 | 0.00 | 93 | 1038.4 |
| 20260831085645 | 23 | 27 | 0.0 | 0.0 | 0.00 | 0.00 | 0.00 | 93 | 1038.2 |
| 20260831085140 | 23 | 28 | 0.0 | 0.0 | 0.00 | 0.00 | 0.00 | 93 | 1038.3 |
| 20260831084636 | 23 | 28 | 0.0 | 0.0 | 0.00 | 0.00 | 0.00 | 93 | 1038.2 |
| 20260831084132 | 23 | 0 | 0.0 | 0.0 | 0.00 | 0.00 | 0.00 | 93 | 1038.1 |
| 20260831083628 | 23 | 359 | 0.0 | 0.0 | 0.00 | 0.00 | 0.00 | 93 | 1038.1 |
| 20260831083123 | 23 | 359 | 0.0 | 0.0 | 0.00 | 0.00 | 0.00 | 92 | 1038.1 |
| 20260831082621 | 23 | 359 | 0.0 | 0.0 | 0.00 | 0.00 | 0.00 | 92 | 1038.0 |
| 20260831082117 | 23 | 359 | 0.0 | 0.0 | 0.00 | 0.00 | 0.00 | 92 | 1038.0 |
| 20260831081612 | 23 | 359 | 0.0 | 0.0 | 0.00 | 0.00 | 0.00 | 91 | 1037.9 |
| 20260831081108 | 23 | 26 | 0.0 | 0.0 | 0.00 | 0.00 | 0.00 | 91 | 1037.9 |
| 20260831080603 | 23 | 26 | 0.0 | 0.0 | 0.00 | 0.00 | 0.00 | 91 | 1038.1 |
| 20260831080058 | 24 | 3 | 0.0 | 0.0 | 0.00 | 0.00 | 0.00 | 91 | 1037.8 |
| 20260831075554 | 24 | 271 | 1.6 | 1.6 | 0.00 | 0.00 | 0.00 | 91 | 1038.0 |
| 20260831075049 | 24 | 11 | 0.0 | 0.0 | 0.00 | 0.00 | 0.00 | 90 | 1037.9 |
| 20260831074548 | 24 | 15 | 0.0 | 0.0 | 0.00 | 0.00 | 0.00 | 90 | 1037.9 |
| 20260831074043 | 25 | 12 | 0.0 | 0.0 | 0.00 | 0.00 | 0.00 | 89 | 1037.8 |
| 20260831073538 | 25 | 12 | 0.0 | 0.0 | 0.00 | 0.00 | 0.00 | 89 | 1037.9 |
| 20260831073038 | 25 | 10 | 0.0 | 0.0 | 0.00 | 0.00 | 0.00 | 89 | 1037.8 |
| 20260831072533 | 24 | 315 | 0.0 | 0.0 | 0.00 | 0.00 | 0.00 | 90 | 1037.8 |
| 20260831072030 | 24 | 189 | 0.0 | 0.0 | 0.00 | 0.00 | 0.00 | 90 | 1038.0 |
| 20260831071528 | 24 | 185 | 1.6 | 1.6 | 0.00 | 0.00 | 0.00 | 90 | 1037.8 |
| 20260831071024 | 25 | 114 | 1.6 | 1.6 | 0.00 | 0.00 | 0.00 | 89 | 1038.1 |
| 20260831070522 | 25 | 266 | 0.0 | 0.0 | 0.00 | 0.00 | 0.00 | 89 | 1037.9 |
| 20260831070018 | 25 | 276 | 0.0 | 0.0 | 0.00 | 0.00 | 0.00 | 89 | 1037.8 |
| 20260831065515 | 25 | 325 | 0.0 | 0.0 | 0.00 | 0.00 | 0.00 | 88 | 1037.8 |
| 20260831065010 | 25 | 358 | 0.0 | 0.0 | 0.00 | 0.00 | 0.00 | 87 | 1037.7 |
| 20260831064505 | 25 | 358 | 0.0 | 0.0 | 0.00 | 0.00 | 0.00 | 87 | 1037.8 |
| 20260831064001 | 25 | 348 | 0.0 | 0.0 | 0.00 | 0.00 | 0.00 | 87 | 1038.0 |
| 20260831063456 | 25 | 354 | 0.0 | 0.0 | 0.00 | 0.00 | 0.00 | 86 | 1037.9 |
| 20260831062955 | 25 | 359 | 0.0 | 0.0 | 0.00 | 0.00 | 0.00 | 87 | 1037.9 |
| 20260831062451 | 25 | 2 | 0.0 | 0.0 | 0.00 | 0.00 | 0.00 | 86 | 1037.8 |
| 20260831061950 | 25 | 4 | 0.0 | 0.0 | 0.00 | 0.00 | 0.00 | 86 | 1037.6 |
| 20260831061448 | 25 | 357 | 0.0 | 0.0 | 0.00 | 0.00 | 0.00 | 85 | 1037.6 |
| 20260831060945 | 25 | 5 | 0.0 | 0.0 | 0.00 | 0.00 | 0.00 | 85 | 1037.8 |
| 20260831060440 | 25 | 5 | 0.0 | 0.0 | 0.00 | 0.00 | 0.00 | 85 | 1037.7 |
| 20260831055939 | 25 | 354 | 0.0 | 0.0 | 0.00 | 0.00 | 0.00 | 85 | 1037.6 |
| 20260831055434 | 25 | 14 | 0.0 | 0.0 | 0.00 | 0.00 | 0.00 | 85 | 1037.9 |
| 20260831054930 | 25 | 354 | 0.0 | 0.0 | 0.00 | 0.00 | 0.00 | 85 | 1037.9 |
| 20260831054430 | 26 | 353 | 0.0 | 0.0 | 0.00 | 0.00 | 0.00 | 84 | 1038.0 |
| 20260831053924 | 25 | 357 | 0.0 | 0.0 | 0.00 | 0.00 | 0.00 | 85 | 1038.1 |
| 20260831053422 | 25 | 357 | 0.0 | 0.0 | 0.00 | 0.00 | 0.00 | 85 | 1038.1 |
| 20260831052917 | 25 | 343 | 0.0 | 0.0 | 0.00 | 0.00 | 0.00 | 84 | 1038.1 |
| 20260831052416 | 25 | 343 | 0.0 | 0.0 | 0.00 | 0.00 | 0.00 | 84 | 1038.1 |
| 20260831051914 | 26 | 343 | 0.0 | 0.0 | 0.00 | 0.00 | 0.00 | 84 | 1038.1 |
| 20260831051413 | 26 | 343 | 0.0 | 0.0 | 0.00 | 0.00 | 0.00 | 85 | 1038.2 |
| 20260831050908 | 25 | 343 | 0.0 | 0.0 | 0.00 | 0.00 | 0.00 | 84 | 1038.2 |
| 20260831050402 | 26 | 343 | 0.0 | 0.0 | 0.00 | 0.00 | 0.00 | 85 | 1038.4 |
| 20260831045856 | 26 | 343 | 0.0 | 0.0 | 0.00 | 0.00 | 0.00 | 85 | 1038.4 |
| 20260831045355 | 26 | 347 | 0.0 | 0.0 | 0.00 | 0.00 | 0.00 | 84 | 1038.3 |
| 20260831044850 | 26 | 346 | 0.0 | 0.0 | 0.00 | 0.00 | 0.00 | 84 | 1038.3 |
| 20260831044345 | 26 | 348 | 0.0 | 0.0 | 0.00 | 0.00 | 0.00 | 84 | 1038.2 |
| 20260831043841 | 26 | 348 | 0.0 | 0.0 | 0.00 | 0.00 | 0.00 | 85 | 1038.3 |
| 20260831043340 | 26 | 20 | 0.0 | 0.0 | 0.00 | 0.00 | 0.00 | 84 | 1038.2 |
| 20260831042835 | 26 | 16 | 0.0 | 0.0 | 0.00 | 0.00 | 0.00 | 83 | 1038.2 |
| 20260831042335 | 26 | 16 | 0.0 | 0.0 | 0.00 | 0.00 | 0.00 | 83 | 1038.2 |
| 20260831041831 | 26 | 17 | 0.0 | 0.0 | 0.00 | 0.00 | 0.00 | 83 | 1038.2 |
| 20260831041330 | 26 | 17 | 0.0 | 0.0 | 0.00 | 0.00 | 0.00 | 83 | 1038.2 |
| 20260831040825 | 26 | 16 | 0.0 | 0.0 | 0.00 | 0.00 | 0.00 | 82 | 1038.0 |
| 20260831040324 | 26 | 16 | 0.0 | 0.0 | 0.00 | 0.00 | 0.00 | 82 | 1038.0 |
| 20260831035823 | 26 | 16 | 0.0 | 0.0 | 0.00 | 0.00 | 0.00 | 82 | 1037.9 |
| 20260831035321 | 26 | 16 | 0.0 | 0.0 | 0.00 | 0.00 | 0.00 | 82 | 1038.0 |
| 20260831034816 | 26 | 14 | 0.0 | 0.0 | 0.00 | 0.00 | 0.00 | 82 | 1038.1 |
| 20260831034312 | 26 | 3 | 0.0 | 0.0 | 0.00 | 0.00 | 0.00 | 83 | 1038.1 |
| 20260831033807 | 26 | 349 | 0.0 | 0.0 | 0.00 | 0.00 | 0.00 | 83 | 1038.2 |
| 20260831033307 | 26 | 341 | 0.0 | 0.0 | 0.00 | 0.00 | 0.00 | 82 | 1038.1 |
| 20260831032803 | 26 | 350 | 0.0 | 0.0 | 0.00 | 0.00 | 0.00 | 83 | 1038.4 |
| 20260831032257 | 26 | 351 | 0.0 | 0.0 | 0.00 | 0.00 | 0.00 | 82 | 1038.2 |
| 20260831031752 | 26 | 351 | 0.0 | 0.0 | 0.00 | 0.00 | 0.00 | 82 | 1038.3 |
| 20260831031251 | 26 | 351 | 0.0 | 0.0 | 0.00 | 0.00 | 0.00 | 82 | 1038.0 |
| 20260831030746 | 26 | 351 | 0.0 | 0.0 | 0.00 | 0.00 | 0.00 | 82 | 1038.1 |
| 20260831030244 | 26 | 351 | 0.0 | 0.0 | 0.00 | 0.00 | 0.00 | 82 | 1037.9 |
| 20260831025744 | 26 | 351 | 0.0 | 0.0 | 0.00 | 0.00 | 0.00 | 83 | 1038.3 |
| 20260831025238 | 26 | 351 | 0.0 | 0.0 | 0.00 | 0.00 | 0.00 | 83 | 1037.9 |
| 20260831024735 | 26 | 351 | 0.0 | 0.0 | 0.00 | 0.00 | 0.00 | 82 | 1038.2 |
| 20260831024233 | 26 | 351 | 0.0 | 0.0 | 0.00 | 0.00 | 0.00 | 82 | 1038.0 |
| 20260831023732 | 26 | 351 | 0.0 | 0.0 | 0.00 | 0.00 | 0.00 | 83 | 1038.0 |
| 20260831023231 | 26 | 351 | 0.0 | 0.0 | 0.00 | 0.00 | 0.00 | 83 | 1038.1 |
| 20260831022727 | 26 | 351 | 0.0 | 0.0 | 0.00 | 0.00 | 0.00 | 83 | 1038.1 |
| 20260831022221 | 26 | 351 | 0.0 | 0.0 | 0.00 | 0.00 | 0.00 | 82 | 1038.0 |
| 20260831021720 | 26 | 351 | 0.0 | 0.0 | 0.00 | 0.00 | 0.00 | 82 | 1038.0 |
| 20260831021215 | 26 | 351 | 0.0 | 0.0 | 0.00 | 0.00 | 0.00 | 81 | 1038.2 |
| 20260831020712 | 26 | 351 | 0.0 | 0.0 | 0.00 | 0.00 | 0.00 | 81 | 1037.9 |
| 20260831020211 | 27 | 351 | 0.0 | 0.0 | 0.00 | 0.00 | 0.00 | 81 | 1038.0 |
| 20260831015706 | 27 | 351 | 0.0 | 0.0 | 0.00 | 0.00 | 0.00 | 81 | 1038.0 |
| 20260831015201 | 27 | 351 | 0.0 | 0.0 | 0.00 | 0.00 | 0.00 | 80 | 1037.7 |
| 20260831014656 | 27 | 351 | 0.0 | 0.0 | 0.00 | 0.00 | 0.00 | 79 | 1037.5 |
| 20260831014151 | 27 | 351 | 0.0 | 0.0 | 0.00 | 0.00 | 0.00 | 79 | 1037.7 |
| 20260831013647 | 27 | 351 | 0.0 | 0.0 | 0.00 | 0.00 | 0.00 | 78 | 1037.8 |
| 20260831013146 | 27 | 351 | 0.0 | 0.0 | 0.00 | 0.00 | 0.00 | 78 | 1037.6 |
| 20260831012642 | 27 | 351 | 0.0 | 0.0 | 0.00 | 0.00 | 0.00 | 77 | 1037.7 |
| 20260831012137 | 27 | 351 | 0.0 | 0.0 | 0.00 | 0.00 | 0.00 | 77 | 1037.5 |
| 20260831011636 | 27 | 351 | 0.0 | 0.0 | 0.00 | 0.00 | 0.00 | 76 | 1037.4 |
| 20260831011132 | 28 | 351 | 0.0 | 0.0 | 0.00 | 0.00 | 0.00 | 76 | 1037.3 |
| 20260831010627 | 28 | 351 | 0.0 | 0.0 | 0.00 | 0.00 | 0.00 | 75 | 1037.5 |
| 20260831010123 | 28 | 351 | 0.0 | 0.0 | 0.00 | 0.00 | 0.00 | 75 | 1037.2 |
| 20260831005617 | 28 | 350 | 0.0 | 0.0 | 0.00 | 0.00 | 0.00 | 74 | 1037.1 |
| 20260831005112 | 28 | 11 | 0.0 | 0.0 | 0.00 | 0.00 | 0.00 | 73 | 1037.2 |
| 20260831004608 | 28 | 11 | 0.0 | 0.0 | 0.00 | 0.00 | 0.00 | 73 | 1037.4 |
| 20260831004103 | 28 | 359 | 0.0 | 0.0 | 0.00 | 0.00 | 0.00 | 72 | 1037.4 |
| 20260831003600 | 29 | 352 | 0.0 | 0.0 | 0.00 | 0.00 | 0.00 | 71 | 1037.3 |
| 20260831003055 | 29 | 22 | 0.0 | 0.0 | 0.00 | 0.00 | 0.00 | 70 | 1037.1 |
| 20260831002554 | 29 | 351 | 0.0 | 0.0 | 0.00 | 0.00 | 0.00 | 69 | 1037.3 |
| 20260831002049 | 29 | 21 | 0.0 | 0.0 | 0.00 | 0.00 | 0.00 | 69 | 1037.1 |
| 20260831001544 | 30 | 19 | 0.0 | 0.0 | 0.00 | 0.00 | 0.00 | 69 | 1037.2 |
| 20260831001041 | 30 | 19 | 0.0 | 0.0 | 0.00 | 0.00 | 0.00 | 68 | 1037.0 |
| 20260831000537 | 30 | 13 | 0.0 | 0.0 | 0.00 | 0.00 | 0.00 | 68 | 1037.1 |
| 20260831000036 | 30 | 22 | 0.0 | 0.0 | 0.00 | 0.00 | 0.00 | 68 | 1037.0 |
| 20260830235535 | 30 | 342 | 0.0 | 0.0 | 0.00 | 0.00 | 0.00 | 67 | 1037.3 |
| 20260830235031 | 30 | 354 | 0.0 | 0.0 | 0.00 | 0.00 | 0.00 | 67 | 1037.3 |
| 20260830234525 | 30 | 22 | 0.0 | 0.0 | 0.00 | 0.00 | 0.00 | 67 | 1037.1 |
| 20260830234021 | 30 | 341 | 0.0 | 0.0 | 0.00 | 0.00 | 0.00 | 67 | 1037.0 |
| 20260830233516 | 30 | 14 | 0.0 | 0.0 | 0.00 | 0.00 | 0.00 | 66 | 1037.2 |
| 20260830233012 | 30 | 355 | 0.0 | 0.0 | 0.00 | 0.00 | 0.00 | 66 | 1037.0 |
| 20260830232508 | 30 | 15 | 0.0 | 0.0 | 0.00 | 0.00 | 0.00 | 66 | 1036.9 |
| 20260830232004 | 30 | 1 | 0.0 | 0.0 | 0.00 | 0.00 | 0.00 | 66 | 1037.0 |
| 20260830231459 | 30 | 8 | 0.0 | 0.0 | 0.00 | 0.00 | 0.00 | 66 | 1037.1 |
| 20260830230958 | 30 | 8 | 0.0 | 0.0 | 0.00 | 0.00 | 0.00 | 66 | 1036.9 |
| 20260830230454 | 30 | 348 | 0.0 | 0.0 | 0.00 | 0.00 | 0.00 | 66 | 1037.1 |
| 20260830225952 | 30 | 22 | 0.0 | 0.0 | 0.00 | 0.00 | 0.00 | 66 | 1037.0 |
| 20260830225449 | 30 | 349 | 0.0 | 0.0 | 0.00 | 0.00 | 0.00 | 67 | 1037.0 |
| 20260830224948 | 30 | 17 | 0.0 | 0.0 | 0.00 | 0.00 | 0.00 | 66 | 1037.0 |
| 20260830224447 | 30 | 354 | 0.0 | 0.0 | 0.00 | 0.00 | 0.00 | 67 | 1036.8 |
| 20260830223944 | 31 | 353 | 0.0 | 0.0 | 0.00 | 0.00 | 0.00 | 66 | 1036.9 |
| 20260830223441 | 30 | 347 | 0.0 | 0.0 | 0.00 | 0.00 | 0.00 | 65 | 1036.6 |
| 20260830222939 | 30 | 355 | 0.0 | 0.0 | 0.00 | 0.00 | 0.00 | 66 | 1036.8 |
| 20260830222435 | 30 | 340 | 0.0 | 0.0 | 0.00 | 0.00 | 0.00 | 68 | 1036.8 |
| 20260830221930 | 30 | 29 | 0.0 | 0.0 | 0.00 | 0.00 | 0.00 | 69 | 1036.8 |
| 20260830221426 | 31 | 16 | 0.0 | 0.0 | 0.00 | 0.00 | 0.00 | 65 | 1036.8 |
| 20260830220921 | 30 | 346 | 1.6 | 1.6 | 0.00 | 0.00 | 0.00 | 66 | 1036.7 |
| 20260830220416 | 30 | 6 | 0.0 | 0.0 | 0.00 | 0.00 | 0.00 | 67 | 1036.8 |
| 20260830215914 | 30 | 11 | 0.0 | 0.0 | 0.00 | 0.00 | 0.00 | 68 | 1036.8 |
| 20260830215409 | 31 | 159 | 1.6 | 4.8 | 0.00 | 0.00 | 0.00 | 65 | 1036.7 |
| 20260830214903 | 31 | 346 | 1.6 | 1.6 | 0.00 | 0.00 | 0.00 | 65 | 1036.7 |
| 20260830214359 | 31 | 54 | 0.0 | 0.0 | 0.00 | 0.00 | 0.00 | 63 | 1037.0 |
| 20260830213853 | 31 | 287 | 0.0 | 0.0 | 0.00 | 0.00 | 0.00 | 64 | 1036.9 |
| 20260830213348 | 31 | 20 | 0.0 | 0.0 | 0.00 | 0.00 | 0.00 | 64 | 1037.1 |
| 20260830212844 | 31 | 1 | 0.0 | 0.0 | 0.00 | 0.00 | 0.00 | 66 | 1037.1 |
| 20260830212340 | 31 | 26 | 0.0 | 0.0 | 0.00 | 0.00 | 0.00 | 64 | 1037.1 |
| 20260830211839 | 31 | 30 | 0.0 | 0.0 | 0.00 | 0.00 | 0.00 | 64 | 1037.0 |
| 20260830211333 | 31 | 350 | 3.2 | 3.2 | 0.00 | 0.00 | 0.00 | 69 | 1037.1 |
| 20260830210829 | 31 | 4 | 1.6 | 1.6 | 0.00 | 0.00 | 0.00 | 67 | 1037.0 |
| 20260830210328 | 31 | 12 | 0.0 | 0.0 | 0.00 | 0.00 | 0.00 | 67 | 1037.4 |
| 20260830205826 | 31 | 5 | 0.0 | 0.0 | 0.00 | 0.00 | 0.00 | 65 | 1037.3 |
| 20260830205325 | 31 | 139 | 0.0 | 1.6 | 0.00 | 0.00 | 0.00 | 64 | 1037.4 |
| 20260830204821 | 31 | 3 | 0.0 | 0.0 | 0.00 | 0.00 | 0.00 | 64 | 1037.6 |
| 20260830204320 | 31 | 54 | 0.0 | 1.6 | 0.00 | 0.00 | 0.00 | 65 | 1037.3 |
| 20260830203816 | 31 | 39 | 0.0 | 0.0 | 0.00 | 0.00 | 0.00 | 64 | 1037.3 |
| 20260830203312 | 31 | 148 | 1.6 | 1.6 | 0.00 | 0.00 | 0.00 | 64 | 1037.5 |
| 20260830202811 | 31 | 21 | 1.6 | 1.6 | 0.00 | 0.00 | 0.00 | 68 | 1037.7 |
| 20260830202306 | 31 | 7 | 1.6 | 1.6 | 0.00 | 0.00 | 0.00 | 67 | 1037.7 |
| 20260830201801 | 31 | 24 | 0.0 | 0.0 | 0.00 | 0.00 | 0.00 | 68 | 1037.6 |
| 20260830201255 | 31 | 345 | 1.6 | 1.6 | 0.00 | 0.00 | 0.00 | 66 | 1037.9 |
| 20260830200751 | 31 | 5 | 0.0 | 0.0 | 0.00 | 0.00 | 0.00 | 67 | 1037.9 |
| 20260830200250 | 31 | 9 | 0.0 | 0.0 | 0.00 | 0.00 | 0.00 | 66 | 1037.8 |
| 20260830195746 | 31 | 23 | 0.0 | 0.0 | 0.00 | 0.00 | 0.00 | 64 | 1037.9 |
| 20260830195245 | 31 | 357 | 1.6 | 1.6 | 0.00 | 0.00 | 0.00 | 66 | 1037.9 |
| 20260830194743 | 31 | 3 | 0.0 | 0.0 | 0.00 | 0.00 | 0.00 | 68 | 1038.1 |
| 20260830194238 | 31 | 14 | 0.0 | 0.0 | 0.00 | 0.00 | 0.00 | 66 | 1037.9 |
| 20260830193737 | 30 | 34 | 0.0 | 0.0 | 0.00 | 0.00 | 0.00 | 66 | 1038.3 |
| 20260830193232 | 31 | 24 | 0.0 | 0.0 | 0.00 | 0.00 | 0.00 | 69 | 1038.4 |
| 20260830192728 | 31 | 19 | 3.2 | 4.8 | 0.00 | 0.00 | 0.00 | 65 | 1038.4 |
| 20260830192222 | 31 | 350 | 0.0 | 0.0 | 0.00 | 0.00 | 0.00 | 70 | 1038.3 |
| 20260830191719 | 31 | 35 | 0.0 | 0.0 | 0.00 | 0.00 | 0.00 | 68 | 1038.2 |
| 20260830191218 | 31 | 17 | 0.0 | 0.0 | 0.00 | 0.00 | 0.00 | 68 | 1038.0 |
| 20260830190714 | 31 | 27 | 0.0 | 0.0 | 0.00 | 0.00 | 0.00 | 64 | 1038.4 |
| 20260830190209 | 32 | 35 | 0.0 | 0.0 | 0.00 | 0.00 | 0.00 | 66 | 1038.2 |
| 20260830185707 | 32 | 19 | 0.0 | 0.0 | 0.00 | 0.00 | 0.00 | 65 | 1038.4 |
| 20260830185202 | 32 | 36 | 0.0 | 0.0 | 0.00 | 0.00 | 0.00 | 65 | 1038.4 |
| 20260830184702 | 32 | 357 | 0.0 | 0.0 | 0.00 | 0.00 | 0.00 | 64 | 1038.6 |
| 20260830184156 | 32 | 354 | 0.0 | 0.0 | 0.00 | 0.00 | 0.00 | 66 | 1038.4 |
| 20260830183651 | 32 | 0 | 0.0 | 0.0 | 0.00 | 0.00 | 0.00 | 64 | 1038.6 |
| 20260830183146 | 32 | 27 | 0.0 | 0.0 | 0.00 | 0.00 | 0.00 | 64 | 1038.7 |
| 20260830182641 | 31 | 339 | 1.6 | 1.6 | 0.00 | 0.00 | 0.00 | 67 | 1038.9 |
| 20260830182137 | 31 | 19 | 0.0 | 0.0 | 0.00 | 0.00 | 0.00 | 70 | 1038.8 |
| 20260830181633 | 31 | 23 | 0.0 | 1.6 | 0.00 | 0.00 | 0.00 | 69 | 1039.2 |
| 20260830181133 | 31 | 359 | 0.0 | 0.0 | 0.00 | 0.00 | 0.00 | 68 | 1038.9 |
| 20260830180632 | 31 | 10 | 0.0 | 1.6 | 0.00 | 0.00 | 0.00 | 70 | 1039.2 |
| 20260830180127 | 31 | 14 | 0.0 | 0.0 | 0.00 | 0.00 | 0.00 | 68 | 1039.5 |
| 20260830175626 | 30 | 26 | 0.0 | 0.0 | 0.00 | 0.00 | 0.00 | 70 | 1039.2 |
| 20260830175121 | 30 | 18 | 0.0 | 0.0 | 0.00 | 0.00 | 0.00 | 72 | 1039.3 |
| 20260830174617 | 30 | 23 | 0.0 | 0.0 | 0.00 | 0.00 | 0.00 | 72 | 1039.3 |
| 20260830174112 | 30 | 30 | 0.0 | 0.0 | 0.00 | 0.00 | 0.00 | 72 | 1039.4 |
| 20260830173607 | 30 | 5 | 0.0 | 0.0 | 0.00 | 0.00 | 0.00 | 72 | 1039.5 |
| 20260830173102 | 30 | 63 | 1.6 | 1.6 | 0.00 | 0.00 | 0.00 | 69 | 1039.5 |
| 20260830172559 | 30 | 14 | 0.0 | 1.6 | 0.00 | 0.00 | 0.00 | 76 | 1039.8 |
| 20260830172055 | 29 | 18 | 0.0 | 0.0 | 0.00 | 0.00 | 0.00 | 73 | 1039.8 |
| 20260830171550 | 29 | 19 | 0.0 | 0.0 | 0.00 | 0.00 | 0.00 | 73 | 1039.8 |
| 20260830171044 | 30 | 35 | 1.6 | 1.6 | 0.00 | 0.00 | 0.00 | 73 | 1039.9 |
| 20260830170539 | 30 | 13 | 0.0 | 0.0 | 0.00 | 0.00 | 0.00 | 74 | 1039.8 |
| 20260830170038 | 29 | 20 | 0.0 | 0.0 | 0.00 | 0.00 | 0.00 | 74 | 1039.9 |
| 20260830165533 | 30 | 20 | 1.6 | 3.2 | 0.00 | 0.00 | 0.00 | 77 | 1040.1 |
| 20260830165029 | 30 | 349 | 1.6 | 1.6 | 0.00 | 0.00 | 0.00 | 76 | 1040.0 |
| 20260830164525 | 29 | 33 | 1.6 | 3.2 | 0.00 | 0.00 | 0.00 | 75 | 1040.2 |
| 20260830164021 | 29 | 359 | 0.0 | 0.0 | 0.00 | 0.00 | 0.00 | 75 | 1040.0 |
| 20260830163518 | 29 | 17 | 0.0 | 0.0 | 0.00 | 0.00 | 0.00 | 77 | 1040.3 |
| 20260830163016 | 28 | 24 | 0.0 | 0.0 | 0.00 | 0.00 | 0.00 | 78 | 1040.5 |
| 20260830162512 | 28 | 12 | 0.0 | 0.0 | 0.00 | 0.00 | 0.00 | 78 | 1040.4 |
| 20260830162007 | 28 | 358 | 0.0 | 0.0 | 0.00 | 0.00 | 0.00 | 81 | 1040.4 |
| 20260830161501 | 28 | 12 | 0.0 | 0.0 | 0.00 | 0.00 | 0.00 | 80 | 1040.4 |
| 20260830160955 | 28 | 26 | 0.0 | 0.0 | 0.00 | 0.00 | 0.00 | 80 | 1040.6 |
| 20260830160447 | 28 | 117 | 3.2 | 4.8 | 0.00 | 0.00 | 0.00 | 78 | 1040.6 |
| 20260830155941 | 28 | 357 | 0.0 | 0.0 | 0.00 | 0.00 | 0.00 | 80 | 1040.5 |
| 20260830155438 | 28 | 355 | 0.0 | 0.0 | 0.00 | 0.00 | 0.00 | 82 | 1040.7 |
| 20260830154933 | 27 | 353 | 0.0 | 0.0 | 0.00 | 0.00 | 0.00 | 83 | 1040.9 |
| 20260830154428 | 27 | 344 | 0.0 | 0.0 | 0.00 | 0.00 | 0.00 | 83 | 1040.7 |
| 20260830153925 | 27 | 9 | 0.0 | 0.0 | 0.00 | 0.00 | 0.00 | 85 | 1040.8 |
| 20260830153420 | 27 | 352 | 0.0 | 0.0 | 0.00 | 0.00 | 0.00 | 85 | 1040.5 |
| 20260830152919 | 28 | 20 | 0.0 | 0.0 | 0.00 | 0.00 | 0.00 | 84 | 1040.6 |
| 20260830152414 | 27 | 3 | 0.0 | 0.0 | 0.00 | 0.00 | 0.00 | 84 | 1040.5 |
| 20260830151907 | 27 | 37 | 0.0 | 0.0 | 0.00 | 0.00 | 0.00 | 84 | 1040.4 |
| 20260830151402 | 27 | 18 | 0.0 | 0.0 | 0.00 | 0.00 | 0.00 | 87 | 1040.7 |
| 20260830150857 | 27 | 353 | 1.6 | 1.6 | 0.00 | 0.00 | 0.00 | 86 | 1040.6 |
| 20260830150356 | 26 | 11 | 0.0 | 0.0 | 0.00 | 0.00 | 0.00 | 88 | 1040.6 |
| 20260830145851 | 27 | 351 | 0.0 | 0.0 | 0.00 | 0.00 | 0.00 | 89 | 1040.5 |
| 20260830145346 | 26 | 20 | 0.0 | 0.0 | 0.00 | 0.00 | 0.00 | 88 | 1040.8 |
| 20260830144841 | 27 | 20 | 0.0 | 0.0 | 0.00 | 0.00 | 0.00 | 87 | 1040.6 |
| 20260830144337 | 27 | 17 | 0.0 | 0.0 | 0.00 | 0.00 | 0.00 | 86 | 1040.7 |
| 20260830143832 | 27 | 16 | 0.0 | 0.0 | 0.00 | 0.00 | 0.00 | 86 | 1040.7 |
| 20260830143332 | 27 | 9 | 0.0 | 0.0 | 0.00 | 0.00 | 0.00 | 86 | 1040.5 |
| 20260830142826 | 27 | 356 | 0.0 | 1.6 | 0.00 | 0.00 | 0.00 | 86 | 1040.5 |
| 20260830142321 | 27 | 22 | 0.0 | 0.0 | 0.00 | 0.00 | 0.00 | 86 | 1040.8 |
| 20260830141816 | 26 | 19 | 0.0 | 0.0 | 0.00 | 0.00 | 0.00 | 89 | 1040.6 |
| 20260830141311 | 26 | 3 | 0.0 | 0.0 | 0.00 | 0.00 | 0.00 | 89 | 1040.6 |
| 20260830140807 | 26 | 11 | 0.0 | 0.0 | 0.00 | 0.00 | 0.00 | 91 | 1040.6 |
| 20260830140307 | 25 | 348 | 1.6 | 1.6 | 0.00 | 0.00 | 0.00 | 91 | 1040.6 |
| 20260830135801 | 25 | 20 | 0.0 | 0.0 | 0.00 | 0.00 | 0.00 | 93 | 1040.7 |
| 20260830135257 | 25 | 353 | 0.0 | 0.0 | 0.00 | 0.00 | 0.00 | 93 | 1040.7 |
| 20260830134752 | 25 | 41 | 0.0 | 0.0 | 0.00 | 0.00 | 0.00 | 93 | 1040.5 |
| 20260830134247 | 25 | 21 | 0.0 | 0.0 | 0.00 | 0.00 | 0.00 | 94 | 1040.7 |
| 20260830133743 | 25 | 22 | 0.0 | 0.0 | 0.00 | 0.00 | 0.00 | 95 | 1040.8 |
| 20260830133239 | 25 | 356 | 0.0 | 0.0 | 0.00 | 0.00 | 0.00 | 96 | 1040.7 |
| 20260830132734 | 24 | 15 | 0.0 | 0.0 | 0.00 | 0.00 | 0.00 | 96 | 1040.7 |
| 20260830132230 | 24 | 358 | 0.0 | 0.0 | 0.00 | 0.00 | 0.00 | 97 | 1040.5 |
| 20260830131728 | 24 | 358 | 0.0 | 0.0 | 0.00 | 0.00 | 0.00 | 97 | 1040.3 |
| 20260830131223 | 23 | 33 | 0.0 | 0.0 | 0.00 | 0.00 | 0.00 | 97 | 1040.6 |
| 20260830130713 | 23 | 14 | 0.0 | 0.0 | 0.00 | 0.00 | 0.00 | 98 | 1040.5 |
| 20260830130213 | 23 | 16 | 0.0 | 0.0 | 0.00 | 0.00 | 0.00 | 98 | 1040.5 |
| 20260830125712 | 23 | 16 | 0.0 | 0.0 | 0.00 | 0.00 | 0.00 | 98 | 1040.3 |
| 20260830125207 | 23 | 17 | 0.0 | 0.0 | 0.00 | 0.00 | 0.00 | 98 | 1040.3 |
| 20260830124705 | 23 | 28 | 0.0 | 0.0 | 0.00 | 0.00 | 0.00 | 98 | 1040.2 |
| 20260830124201 | 23 | 82 | 0.0 | 0.0 | 0.00 | 0.00 | 0.00 | 98 | 1040.2 |
| 20260830123658 | 23 | 74 | 0.0 | 0.0 | 0.00 | 0.00 | 0.00 | 98 | 1040.1 |
| 20260830123153 | 23 | 55 | 0.0 | 0.0 | 0.00 | 0.00 | 0.00 | 98 | 1040.2 |
| 20260830122650 | 23 | 3 | 0.0 | 0.0 | 0.00 | 0.00 | 0.00 | 98 | 1040.0 |
| 20260830122145 | 23 | 331 | 0.0 | 0.0 | 0.00 | 0.00 | 0.00 | 99 | 1040.0 |
| 20260830121641 | 22 | 324 | 0.0 | 0.0 | 0.00 | 0.00 | 0.00 | 99 | 1040.0 |
| 20260830121140 | 22 | 68 | 0.0 | 0.0 | 0.00 | 0.00 | 0.00 | 99 | 1040.1 |
| 20260830120635 | 22 | 90 | 0.0 | 0.0 | 0.00 | 0.00 | 0.00 | 99 | 1040.0 |
| 20260830120132 | 22 | 81 | 0.0 | 0.0 | 0.00 | 0.00 | 0.00 | 99 | 1039.8 |
| 20260830115628 | 22 | 71 | 0.0 | 0.0 | 0.00 | 0.00 | 0.00 | 99 | 1040.0 |
| 20260830115123 | 22 | 62 | 0.0 | 0.0 | 0.00 | 0.00 | 0.00 | 99 | 1040.0 |
| 20260830114620 | 22 | 56 | 0.0 | 0.0 | 0.00 | 0.00 | 0.00 | 99 | 1039.9 |
| 20260830114119 | 22 | 46 | 0.0 | 0.0 | 0.00 | 0.00 | 0.00 | 99 | 1040.0 |
| 20260830113615 | 22 | 28 | 0.0 | 0.0 | 0.00 | 0.00 | 0.00 | 99 | 1040.0 |
| 20260830113110 | 22 | 28 | 0.0 | 0.0 | 0.00 | 0.00 | 0.00 | 98 | 1039.8 |
| 20260830112606 | 22 | 41 | 0.0 | 0.0 | 0.00 | 0.00 | 0.00 | 98 | 1039.6 |
| 20260830112102 | 22 | 69 | 0.0 | 0.0 | 0.00 | 0.00 | 0.00 | 98 | 1039.7 |
| 20260830111557 | 22 | 80 | 0.0 | 0.0 | 0.00 | 0.00 | 0.00 | 98 | 1039.4 |
| 20260830111053 | 22 | 55 | 0.0 | 0.0 | 0.00 | 0.00 | 0.00 | 98 | 1039.6 |
| 20260830110553 | 22 | 45 | 0.0 | 0.0 | 0.00 | 0.00 | 0.00 | 98 | 1039.4 |
| 20260830110048 | 22 | 40 | 0.0 | 0.0 | 0.00 | 0.00 | 0.00 | 98 | 1039.4 |
| 20260830105543 | 22 | 40 | 0.0 | 0.0 | 0.00 | 0.00 | 0.00 | 97 | 1039.4 |
| 20260830105039 | 22 | 40 | 0.0 | 0.0 | 0.00 | 0.00 | 0.00 | 97 | 1039.4 |
| 20260830104536 | 23 | 67 | 0.0 | 0.0 | 0.00 | 0.00 | 0.00 | 97 | 1039.3 |
| 20260830104032 | 23 | 62 | 0.0 | 0.0 | 0.00 | 0.00 | 0.00 | 97 | 1039.2 |
| 20260830103527 | 23 | 21 | 0.0 | 0.0 | 0.00 | 0.00 | 0.00 | 97 | 1039.3 |
| 20260830103025 | 23 | 21 | 0.0 | 0.0 | 0.00 | 0.00 | 0.00 | 97 | 1039.0 |
| 20260830102520 | 23 | 20 | 0.0 | 0.0 | 0.00 | 0.00 | 0.00 | 97 | 1039.1 |
| 20260830102016 | 23 | 29 | 0.0 | 0.0 | 0.00 | 0.00 | 0.00 | 97 | 1039.0 |